Location: Kerentrech
(47.7567°N, 3.3595°W)
Time: 23:31:45
(UTC+00:00)

STARLINK-1156 - Pass Details

Date: 17 February 2020
Orbit: 548 x 551 km, 53.0° (Epoch: 05 April)

Event Time Altitude Azimuth Distance (km) Brightness Sun altitude
Exits shadow 04:02:34 19° 57° (ENE) 1,332 6.2 -33.0°
Drops below altitude 10° 04:03:53 10° 61° (ENE) 1,835 7.1 -32.8°
Enters shadow 05:02:38 -66° 258° (WSW) 12,222 10.4 -23.2°
